Time,TemperatureF,DewpointF,PressureIn,WindDirection,WindDirectionDegrees,WindSpeedMPH,WindSpeedGustMPH,Humidity,HourlyPrecipIn,Conditions,Clouds,dailyrainin,SoftwareType,DateUTC
2013-05-28 00:03:00,65.7,63.0,29.79,SE,134,2.0,11.0,91,0.00,,,0.01,weatherlink.com 1.10,2013-05-28 05:03:00,
2013-05-28 00:18:00,65.4,63.0,29.78,SE,141,6.0,11.0,91,0.00,,,0.01,weatherlink.com 1.10,2013-05-28 05:18:00,
2013-05-28 00:33:00,65.5,63.0,29.78,SE,136,5.0,7.0,91,0.00,,,0.01,weatherlink.com 1.10,2013-05-28 05:33:00,
2013-05-28 00:48:00,65.6,63.0,29.78,SE,140,3.0,7.0,91,0.00,,,0.01,weatherlink.com 1.10,2013-05-28 05:48:00,
2013-05-28 01:03:00,65.8,63.0,29.78,SSE,155,3.0,9.0,90,0.00,,,0.01,weatherlink.com 1.10,2013-05-28 06:03:00,
2013-05-28 01:18:00,65.8,63.0,29.77,SE,146,7.0,9.0,90,0.00,,,0.01,weatherlink.com 1.10,2013-05-28 06:18:00,
2013-05-28 01:33:00,65.9,63.0,29.77,SE,133,2.0,12.0,89,0.00,,,0.01,weatherlink.com 1.10,2013-05-28 06:33:00,
2013-05-28 01:48:00,65.9,63.0,29.76,SSE,159,7.0,10.0,89,0.00,,,0.00,weatherlink.com 1.10,2013-05-28 06:48:00,
2013-05-28 02:03:00,65.6,62.0,29.75,SSE,156,3.0,11.0,89,0.00,,,0.00,weatherlink.com 1.10,2013-05-28 07:03:00,
2013-05-28 02:18:00,65.5,63.0,29.75,SE,142,8.0,12.0,90,0.00,,,0.00,weatherlink.com 1.10,2013-05-28 07:18:00,
2013-05-28 02:33:00,65.6,63.0,29.75,SSE,155,6.0,12.0,90,0.00,,,0.00,weatherlink.com 1.10,2013-05-28 07:33:00,
2013-05-28 02:48:00,65.6,63.0,29.74,SE,140,7.0,13.0,90,0.00,,,0.00,weatherlink.com 1.10,2013-05-28 07:48:00,
2013-05-28 03:03:00,65.9,63.0,29.73,SSE,164,7.0,14.0,90,0.00,,,0.00,weatherlink.com 1.10,2013-05-28 08:03:00,
2013-05-28 03:18:00,66.2,63.0,29.73,ESE,123,8.0,14.0,90,0.00,,,0.00,weatherlink.com 1.10,2013-05-28 08:18:00,
2013-05-28 03:34:00,66.2,63.0,29.72,South,181,8.0,11.0,90,0.00,,,0.00,weatherlink.com 1.10,2013-05-28 08:34:00,
2013-05-28 03:49:00,66.2,63.0,29.72,SE,136,6.0,12.0,90,0.00,,,0.00,weatherlink.com 1.10,2013-05-28 08:49:00,
2013-05-28 04:04:00,66.3,63.0,29.73,SSE,152,8.0,13.0,90,0.00,,,0.00,weatherlink.com 1.10,2013-05-28 09:04:00,
2013-05-28 04:19:00,66.3,63.0,29.75,SSE,165,6.0,11.0,90,0.00,,,0.00,weatherlink.com 1.10,2013-05-28 09:19:00,
2013-05-28 04:34:00,66.5,64.0,29.76,SW,220,4.0,10.0,90,0.00,,,0.00,weatherlink.com 1.10,2013-05-28 09:34:00,
2013-05-28 04:49:00,67.1,64.0,29.77,SSE,150,6.0,10.0,90,0.00,,,0.00,weatherlink.com 1.10,2013-05-28 09:49:00,
2013-05-28 05:04:00,67.1,65.0,29.77,SSW,196,7.0,11.0,91,0.00,,,0.00,weatherlink.com 1.10,2013-05-28 10:04:00,
2013-05-28 05:19:00,66.9,65.0,29.78,WSW,240,6.0,15.0,92,0.00,,,0.00,weatherlink.com 1.10,2013-05-28 10:19:00,
2013-05-28 05:34:00,67.0,65.0,29.78,South,188,2.0,13.0,93,0.00,,,0.00,weatherlink.com 1.10,2013-05-28 10:34:00,
2013-05-28 05:49:00,67.2,65.0,29.78,SSW,195,6.0,15.0,93,0.00,,,0.00,weatherlink.com 1.10,2013-05-28 10:49:00,
2013-05-28 06:04:00,67.4,65.0,29.80,SW,215,11.0,16.0,92,0.00,,,0.00,weatherlink.com 1.10,2013-05-28 11:04:00,
2013-05-28 06:19:00,67.0,65.0,29.80,SSE,163,11.0,15.0,93,0.00,,,0.00,weatherlink.com 1.10,2013-05-28 11:19:00,
2013-05-28 06:34:00,66.5,65.0,29.75,SSE,157,6.0,14.0,93,0.00,,,0.00,weatherlink.com 1.10,2013-05-28 11:34:00,
2013-05-28 06:49:00,66.0,64.0,29.70,SE,133,12.0,23.0,94,0.00,,,0.00,weatherlink.com 1.10,2013-05-28 11:49:00,
2013-05-28 07:04:00,66.5,63.0,29.68,SSE,154,9.0,21.0,89,0.00,,,0.00,weatherlink.com 1.10,2013-05-28 12:04:00,
2013-05-28 07:19:00,67.2,63.0,29.70,SE,141,22.0,25.0,87,0.00,,,0.00,weatherlink.com 1.10,2013-05-28 12:19:00,
2013-05-28 07:34:00,66.7,64.0,29.67,SSE,159,8.0,25.0,90,0.00,,,0.00,weatherlink.com 1.10,2013-05-28 12:34:00,
2013-05-28 07:49:00,67.3,64.0,29.70,SSE,164,10.0,28.0,89,0.00,,,0.00,weatherlink.com 1.10,2013-05-28 12:49:00,
2013-05-28 08:04:00,67.2,64.0,29.73,South,173,10.0,24.0,90,0.00,,,0.00,weatherlink.com 1.10,2013-05-28 13:04:00,
2013-05-28 08:19:00,68.0,65.0,29.75,SSE,149,15.0,22.0,89,0.00,,,0.00,weatherlink.com 1.10,2013-05-28 13:19:00,
2013-05-28 08:34:00,68.1,65.0,29.77,SW,219,13.0,16.0,89,0.00,,,0.00,weatherlink.com 1.10,2013-05-28 13:34:00,
2013-05-28 08:49:00,68.1,65.0,29.79,WNW,291,2.0,9.0,90,0.00,,,0.00,weatherlink.com 1.10,2013-05-28 13:49:00,
2013-05-28 09:04:00,67.9,65.0,29.78,SSE,166,2.0,11.0,91,0.00,,,0.00,weatherlink.com 1.10,2013-05-28 14:04:00,
2013-05-28 09:19:00,68.1,66.0,29.77,SSE,159,5.0,7.0,92,0.00,,,0.00,weatherlink.com 1.10,2013-05-28 14:19:00,
2013-05-28 09:34:00,68.3,66.0,29.77,SSW,201,2.0,8.0,91,0.00,,,0.00,weatherlink.com 1.10,2013-05-28 14:34:00,
2013-05-28 09:49:00,68.4,66.0,29.76,SSE,148,3.0,5.0,92,0.00,,,0.00,weatherlink.com 1.10,2013-05-28 14:49:00,
2013-05-28 10:04:00,69.5,68.0,29.74,SSE,162,7.0,10.0,93,0.00,,,0.00,weatherlink.com 1.10,2013-05-28 15:04:00,
2013-05-28 10:19:00,71.5,68.0,29.73,SSE,159,9.0,18.0,89,0.00,,,0.00,weatherlink.com 1.10,2013-05-28 15:19:00,
2013-05-28 10:34:00,72.9,69.0,29.72,SSW,200,7.0,23.0,86,0.00,,,0.00,weatherlink.com 1.10,2013-05-28 15:34:00,
2013-05-28 10:49:00,74.0,69.0,29.72,SSE,160,9.0,22.0,85,0.00,,,0.00,weatherlink.com 1.10,2013-05-28 15:49:00,
2013-05-28 11:04:00,74.7,69.0,29.73,SSE,157,12.0,21.0,82,0.00,,,0.00,weatherlink.com 1.10,2013-05-28 16:04:00,
2013-05-28 11:20:00,75.0,69.0,29.73,WNW,289,6.0,22.0,82,0.00,,,0.00,weatherlink.com 1.10,2013-05-28 16:20:00,
2013-05-28 11:35:00,75.8,69.0,29.73,South,171,18.0,20.0,80,0.00,,,0.00,weatherlink.com 1.10,2013-05-28 16:35:00,
2013-05-28 11:50:00,76.6,70.0,29.74,SW,221,14.0,25.0,79,0.00,,,0.00,weatherlink.com 1.10,2013-05-28 16:50:00,
2013-05-28 12:05:00,77.4,70.0,29.74,SSW,207,10.0,21.0,77,0.00,,,0.00,weatherlink.com 1.10,2013-05-28 17:05:00,
2013-05-28 12:20:00,76.6,69.0,29.74,South,188,1.0,19.0,78,0.00,,,0.00,weatherlink.com 1.10,2013-05-28 17:20:00,
2013-05-28 12:35:00,76.7,69.0,29.73,West,261,17.0,18.0,78,0.00,,,0.00,weatherlink.com 1.10,2013-05-28 17:35:00,
2013-05-28 12:50:00,77.8,70.0,29.73,SSW,192,9.0,21.0,77,0.00,,,0.00,weatherlink.com 1.10,2013-05-28 17:50:00,
2013-05-28 13:05:00,78.1,70.0,29.72,SSW,211,11.0,23.0,76,0.00,,,0.00,weatherlink.com 1.10,2013-05-28 18:05:00,
2013-05-28 13:35:00,78.6,70.0,29.73,SSE,150,11.0,17.0,75,0.46,,,0.46,weatherlink.com 1.10,2013-05-28 18:35:00,
2013-05-28 13:50:00,77.6,70.0,29.74,South,191,8.0,20.0,77,0.46,,,0.46,weatherlink.com 1.10,2013-05-28 18:50:00,
2013-05-28 14:05:00,77.2,70.0,29.74,South,178,8.0,18.0,77,0.46,,,0.46,weatherlink.com 1.10,2013-05-28 19:05:00,
2013-05-28 14:20:00,77.2,69.0,29.74,SSE,162,7.0,22.0,76,0.00,,,0.46,weatherlink.com 1.10,2013-05-28 19:20:00,
2013-05-28 14:35:00,77.2,70.0,29.74,SW,216,12.0,21.0,77,0.00,,,0.46,weatherlink.com 1.10,2013-05-28 19:35:00,
2013-05-28 14:50:00,77.2,69.0,29.75,SE,144,6.0,18.0,76,0.00,,,0.46,weatherlink.com 1.10,2013-05-28 19:50:00,
2013-05-28 15:05:00,76.3,69.0,29.75,ESE,117,16.0,17.0,78,0.00,,,0.46,weatherlink.com 1.10,2013-05-28 20:05:00,
2013-05-28 15:20:00,76.3,69.0,29.75,West,270,5.0,19.0,78,0.00,,,0.46,weatherlink.com 1.10,2013-05-28 20:20:00,
2013-05-28 15:35:00,76.1,70.0,29.76,SW,229,5.0,16.0,80,0.00,,,0.46,weatherlink.com 1.10,2013-05-28 20:35:00,
2013-05-28 15:50:00,76.0,69.0,29.75,SSW,210,6.0,16.0,80,0.00,,,0.46,weatherlink.com 1.10,2013-05-28 20:50:00,
2013-05-28 16:05:00,76.0,69.0,29.76,SW,227,7.0,11.0,80,0.00,,,0.46,weatherlink.com 1.10,2013-05-28 21:05:00,
2013-05-28 16:20:00,75.9,70.0,29.75,SSW,204,2.0,9.0,81,0.00,,,0.46,weatherlink.com 1.10,2013-05-28 21:20:00,
2013-05-28 16:35:00,75.6,70.0,29.75,SSE,161,4.0,12.0,82,0.00,,,0.46,weatherlink.com 1.10,2013-05-28 21:35:00,
2013-05-28 16:50:00,75.8,70.0,29.76,SSW,198,3.0,11.0,81,0.00,,,0.46,weatherlink.com 1.10,2013-05-28 21:50:00,
2013-05-28 17:05:00,75.7,70.0,29.75,SSE,159,4.0,10.0,82,0.00,,,0.46,weatherlink.com 1.10,2013-05-28 22:05:00,
2013-05-28 17:20:00,75.3,70.0,29.75,South,187,7.0,8.0,82,0.00,,,0.46,weatherlink.com 1.10,2013-05-28 22:20:00,
2013-05-28 17:35:00,74.2,70.0,29.74,SE,144,4.0,10.0,87,0.02,,,0.48,weatherlink.com 1.10,2013-05-28 22:35:00,
2013-05-28 17:50:00,72.8,70.0,29.73,SE,135,1.0,10.0,91,0.03,,,0.49,weatherlink.com 1.10,2013-05-28 22:50:00,
2013-05-28 18:05:00,72.4,70.0,29.72,SSE,155,5.0,6.0,92,0.06,,,0.52,weatherlink.com 1.10,2013-05-28 23:05:00,
2013-05-28 18:20:00,72.5,70.0,29.70,SSE,157,5.0,9.0,93,0.06,,,0.52,weatherlink.com 1.10,2013-05-28 23:20:00,
2013-05-28 18:35:00,72.7,71.0,29.75,SSW,196,0.0,4.0,93,0.04,,,0.52,weatherlink.com 1.10,2013-05-28 23:35:00,
2013-05-28 18:50:00,73.1,71.0,29.76,WNW,290,2.0,5.0,92,0.03,,,0.52,weatherlink.com 1.10,2013-05-28 23:50:00,
2013-05-28 19:05:00,69.8,64.0,29.78,NNW,327,8.0,25.0,82,0.00,,,0.52,weatherlink.com 1.10,2013-05-29 00:05:00,
2013-05-28 19:20:00,69.0,64.0,29.77,NNW,335,2.0,11.0,83,0.00,,,0.52,weatherlink.com 1.10,2013-05-29 00:20:00,
2013-05-28 19:35:00,68.3,63.0,29.77,NE,37,0.0,5.0,83,0.00,,,0.52,weatherlink.com 1.10,2013-05-29 00:35:00,
2013-05-28 19:50:00,67.7,63.0,29.78,NNE,33,1.0,4.0,85,0.00,,,0.52,weatherlink.com 1.10,2013-05-29 00:50:00,
2013-05-28 20:05:00,67.2,63.0,29.77,NNE,29,0.0,1.0,85,0.00,,,0.52,weatherlink.com 1.10,2013-05-29 01:05:00,
2013-05-28 20:20:00,66.6,62.0,29.76,NNE,19,2.0,6.0,86,0.00,,,0.52,weatherlink.com 1.10,2013-05-29 01:20:00,
2013-05-28 20:35:00,66.2,63.0,29.75,NE,49,4.0,6.0,88,0.00,,,0.52,weatherlink.com 1.10,2013-05-29 01:35:00,
2013-05-28 20:50:00,66.1,63.0,29.76,SSE,155,5.0,6.0,89,0.00,,,0.52,weatherlink.com 1.10,2013-05-29 01:50:00,
2013-05-28 21:05:00,65.8,63.0,29.79,SSE,155,0.0,4.0,90,0.00,,,0.52,weatherlink.com 1.10,2013-05-29 02:05:00,
2013-05-28 21:20:00,65.7,63.0,29.80,SSE,163,2.0,5.0,91,0.00,,,0.52,weatherlink.com 1.10,2013-05-29 02:20:00,
2013-05-28 21:35:00,65.7,63.0,29.81,SSE,163,0.0,3.0,91,0.00,,,0.52,weatherlink.com 1.10,2013-05-29 02:35:00,
2013-05-28 21:50:00,65.9,63.0,29.82,SSE,161,1.0,5.0,91,0.01,,,0.53,weatherlink.com 1.10,2013-05-29 02:50:00,
2013-05-28 22:05:00,66.8,65.0,29.82,South,185,2.0,9.0,93,0.03,,,0.55,weatherlink.com 1.10,2013-05-29 03:05:00,
2013-05-28 22:20:00,66.9,65.0,29.82,South,175,3.0,4.0,93,0.03,,,0.55,weatherlink.com 1.10,2013-05-29 03:20:00,
2013-05-28 22:35:00,66.2,64.0,29.81,South,175,3.0,4.0,93,0.03,,,0.55,weatherlink.com 1.10,2013-05-29 03:35:00,
2013-05-28 22:50:00,66.3,65.0,29.84,WSW,245,4.0,5.0,94,0.02,,,0.55,weatherlink.com 1.10,2013-05-29 03:50:00,
2013-05-28 23:05:00,68.9,66.0,29.85,WNW,286,10.0,22.0,90,0.00,,,0.55,weatherlink.com 1.10,2013-05-29 04:05:00,
2013-05-28 23:20:00,68.4,65.0,29.85,NW,306,7.0,13.0,90,0.00,,,0.55,weatherlink.com 1.10,2013-05-29 04:20:00,
2013-05-28 23:35:00,68.2,64.0,29.85,WNW,290,3.0,16.0,86,0.00,,,0.55,weatherlink.com 1.10,2013-05-29 04:35:00,
2013-05-28 23:50:00,67.9,63.0,29.86,NW,318,3.0,18.0,83,0.00,,,0.55,weatherlink.com 1.10,2013-05-29 04:50:00,